[[[{"header":{"parameterUnit":"kt","parameterCategory":2,"dx":1,"dy":1,"la1":30.253999710083008,"la2":30.299108505249023,"lo1":-89.0895004272461,"lo2":-89.04439544677734,"nx":28,"ny":28,"refTime":"2022-10-11T21:00:00:Z","depth":0,"parameterNumber":1,"parameterNumberName":"U-component_of_WINDS"},"data":[2.9153,2.9308,2.9336,2.9527,2.9585,2.9722,2.9781,2.986,2.9931,3.01,3.0204,3.0251,3.0336,3.0469,3.0585,3.0604,3.0654,3.0688,3.0706,3.0522,3.0499,3.0477,3.0442,3.0696,3.0697,3.0893,3.0895,3.0896,2.9019,2.9077,2.9185,2.931,2.9404,2.9388,2.9487,2.9568,2.9692,2.978,2.9882,3.0035,3.016,3.0236,3.0363,3.0441,3.0443,3.0473,3.0471,3.0486,3.0289,3.0252,3.0469,3.0469,3.0469,3.0469,3.0469,3.0469,2.8783,2.8874,2.8965,2.9083,2.9153,2.9237,2.9331,2.9384,2.9493,2.9625,2.9639,2.9781,2.9878,3.0045,3.0109,3.0224,3.0196,3.024,3.0253,3.0265,3.0275,2.9994,3.0246,3.0245,3.0245,3.0245,3.0244,0,2.8621,2.8638,2.8742,2.8857,2.8944,2.9036,2.9125,2.9184,2.9233,2.9321,2.9451,2.9532,2.9693,2.9822,2.9947,3.0006,3.0004,3.0005,3.0037,3.0035,3.0018,3.0034,2.9717,2.9999,2.9997,2.9996,2.9995,2.9994,2.839,2.849,2.8599,2.8669,2.8724,2.8837,2.8911,2.8945,2.9023,2.914,2.9221,2.9348,2.9453,2.966,2.9727,2.9848,2.985,2.9955,2.9869,2.9861,2.9858,2.9854,2.9867,2.9973,2.9976,2.9978,2.998,0,2.8258,2.8302,2.8468,2.8565,2.8593,2.8699,2.8784,2.8878,2.892,2.9055,2.9089,2.9157,2.9286,2.9335,2.9493,2.9516,2.97,2.9694,2.9667,2.9671,2.9774,2.9766,3.009,3.0137,2.9867,2.987,2.9872,0,2.8081,2.8212,2.8271,2.8365,2.8514,2.8544,2.8691,2.8742,2.8822,2.8929,2.8931,2.9032,2.9078,2.9187,2.922,2.9378,2.9406,2.9435,2.9444,2.9438,2.9435,2.9486,2.9476,2.9451,2.945,2.9448,2.9447,0,2.7874,2.8058,2.8209,2.8259,2.8377,2.8448,2.8501,2.8591,2.8664,2.8766,2.8814,2.8931,2.8997,2.9089,2.9131,2.9071,2.9323,2.925,2.9354,2.9353,2.9411,2.9408,2.9678,2.9445,2.9444,2.9444,2.9443,0,2.774,2.7837,2.8048,2.8147,2.8195,2.8295,2.8411,2.8507,2.8602,2.8629,2.8709,2.8718,2.8855,2.8779,2.8972,2.8883,2.8948,2.8987,2.8995,2.9015,2.8931,2.9083,2.933,2.9361,2.9028,2.9025,2.9022,0,2.7494,2.7717,2.7744,2.7945,2.8056,2.805,2.8162,2.8245,2.8289,2.8392,2.8441,2.8559,2.8512,2.8556,2.8644,2.8703,2.8818,2.8687,2.8845,2.8851,2.8824,2.9051,2.9078,2.9269,2.8978,2.8983,2.8986,0,2.7309,2.7446,2.748,2.7539,2.765,2.7742,2.787,2.7992,2.8059,2.815,2.8263,2.8426,2.84,2.8472,2.8491,2.8581,2.8741,2.8541,2.8544,2.858,2.8958,2.8984,2.9015,2.8735,2.874,2.8745,2.8951,0,2.7105,2.722,2.7311,2.7437,2.7515,2.7641,2.7689,2.7765,2.7774,2.7818,2.7981,2.8062,2.8189,2.8236,2.8246,2.8433,2.8411,2.8381,2.8315,2.8461,2.8531,2.8559,2.8206,2.8205,2.8203,2.8202,0,0,2.6862,2.7028,2.7052,2.7175,2.7243,2.7234,2.7366,2.7431,2.7564,2.7613,2.7574,2.7819,2.7887,2.8082,2.8131,2.818,2.8221,2.8167,2.8389,2.841,2.8429,2.8503,2.8531,2.82,2.8199,2.8198,2.8198,0,2.6797,2.6858,2.6985,2.7053,2.7154,2.7192,2.7222,2.7322,2.7356,2.7512,2.7508,2.7611,2.7804,2.7879,2.7943,2.8143,2.8137,2.8177,2.827,2.8373,2.8396,2.8416,2.8492,2.8519,2.8195,2.8195,2.8195,0,2.6628,2.6698,2.6763,2.6911,2.6977,2.7091,2.7031,2.7151,2.7237,2.7226,2.7382,2.7435,2.7538,2.7712,2.7792,2.7761,2.8058,2.7971,2.7981,2.7993,2.8096,2.8122,2.8146,2.7831,2.783,2.7829,0,0,2.6566,2.6672,2.6759,2.6901,2.6943,2.7001,2.7065,2.7081,2.717,2.7206,2.7273,2.7363,2.7477,2.7551,2.766,2.7843,2.787,2.7924,2.7941,2.7955,2.7974,2.808,2.8107,2.7823,2.7823,2.7823,0,0,2.6538,2.6643,2.6635,2.6805,2.6888,2.6986,2.7073,2.7067,2.7169,2.716,2.7196,2.7221,2.7385,2.7437,2.7356,2.7638,2.7571,2.7591,2.7598,2.7621,2.7638,2.7624,2.731,0,0,0,0,0,2.6496,2.663,2.6621,2.6656,2.6845,2.699,2.7015,2.7045,2.6997,2.7065,2.7121,2.7107,2.7401,2.7331,2.7367,2.7459,2.7751,2.7764,2.7776,2.7829,2.7852,2.7871,0,0,0,0,0,0,2.651,2.6553,2.6618,2.672,2.6763,2.6985,2.6911,2.6923,2.699,2.6985,2.7096,2.711,2.7141,2.7314,2.7347,2.7433,2.73,2.7756,2.7767,2.7777,2.7837,2.7855,2.7871,0,0,0,0,0,2.6522,2.6556,2.6849,2.6719,2.6756,2.6828,2.6906,2.6916,2.6969,2.7054,2.7067,2.6985,2.7143,2.7173,2.7334,2.7417,2.7277,2.7289,2.7763,2.7772,2.7779,2.7846,0,0,0,0,0,0,2.653,2.6568,2.6857,2.687,2.667,2.6816,2.684,2.6909,2.7034,2.7048,2.6944,2.6939,2.7146,2.7168,2.7191,2.741,2.7259,2.7271,2.7279,2.777,2.7776,2.7782,0,0,0,0,0,0,2.6549,2.6578,2.6864,2.68,2.6806,2.6805,2.6826,2.6967,2.7036,2.6917,2.6916,2.694,2.7113,2.7166,2.7184,2.7403,2.7245,2.7257,2.7265,2.727,2.7775,2.778,0,0,0,0,0,0,2.6562,2.6587,2.6797,2.6801,2.6806,2.695,2.6931,2.7123,2.6977,2.6912,2.6965,2.6959,2.7111,2.7129,2.7179,2.739,2.74,2.7245,2.7253,2.7259,2.7263,0,0,0,0,0,0,0,2.6573,2.6397,2.6782,2.6803,2.6806,2.6986,2.699,2.6993,2.6976,2.6971,2.6966,2.6962,2.7178,2.7191,2.7204,2.738,0,0,2.7244,2.725,0,0,0,0,0,0,0,0,2.6387,2.6395,2.6783,2.6785,2.6788,2.6987,2.699,2.6993,2.6975,2.6971,2.6967,2.6964,2.7182,2.7192,2.7203,0,0,0,0,0,0,0,0,0,0,0,0,0,0,0,2.6783,2.6785,0,2.6987,2.699,2.6992,2.6974,2.6971,2.6968,2.6965,2.7185,2.7193,2.7202,0,0,0,0,0,0,0,0,0,0,0,0,0,0,0,0,0,0,0,0,0,0,0,0,0,0,0,0,0,0,0,0,0,0,0,0,0,0,0,0,0,0,0,0,0,0,0,0,0,0,0,0,0,0,0,0,0,0,0,0,0,0,0,0,0,0,0,0,0]}],[{"header":{"parameterUnit":"kt","parameterCategory":2,"dx":1,"dy":1,"la1":30.253999710083008,"la2":30.299108505249023,"lo1":-89.0895004272461,"lo2":-89.04439544677734,"nx":28,"ny":28,"refTime":"2022-10-11T21:00:00:Z","depth":0,"parameterNumber":2,"parameterNumberName":"V-component_of_WINDS"},"data":[-0.7745,-0.7504,-0.7508,-0.7236,-0.7192,-0.7008,-0.6942,-0.6859,-0.6792,-0.6573,-0.6447,-0.6424,-0.6358,-0.6209,-0.6073,-0.6066,-0.6009,-0.5927,-0.5933,-0.6301,-0.6352,-0.6401,-0.646,-0.5913,-0.5913,-0.5553,-0.555,-0.5547,-0.8032,-0.7987,-0.7841,-0.7702,-0.7579,-0.7663,-0.7559,-0.745,-0.7281,-0.7195,-0.7069,-0.6875,-0.6721,-0.668,-0.6532,-0.6422,-0.6453,-0.6383,-0.6392,-0.6382,-0.6775,-0.6837,-0.6362,-0.6362,-0.6362,-0.6362,-0.6362,-0.6362,-0.8555,-0.8408,-0.8325,-0.8167,-0.8096,-0.8003,-0.7864,-0.7838,-0.7695,-0.7538,-0.7565,-0.7373,-0.7286,-0.7104,-0.7042,-0.6894,-0.6971,-0.6894,-0.6875,-0.6857,-0.6839,-0.7372,-0.6868,-0.6869,-0.687,-0.6871,-0.6872,0,-0.8939,-0.8951,-0.8808,-0.8668,-0.8552,-0.8441,-0.834,-0.8254,-0.8274,-0.8153,-0.798,-0.788,-0.7681,-0.7518,-0.7377,-0.7327,-0.7398,-0.7402,-0.7351,-0.7338,-0.7349,-0.7347,-0.7994,-0.7416,-0.7421,-0.7424,-0.7427,-0.7429,-0.9471,-0.9296,-0.9206,-0.9107,-0.905,-0.8886,-0.879,-0.882,-0.8715,-0.8594,-0.8462,-0.8297,-0.8167,-0.7885,-0.7852,-0.7702,-0.7735,-0.7517,-0.7713,-0.7711,-0.7739,-0.775,-0.7736,-0.7478,-0.7472,-0.7467,-0.7463,0,-0.9772,-0.9772,-0.95,-0.9426,-0.9402,-0.9217,-0.9154,-0.9007,-0.8994,-0.879,-0.8744,-0.8722,-0.8549,-0.855,-0.8349,-0.8356,-0.8059,-0.8093,-0.8094,-0.8102,-0.7911,-0.7931,-0.7276,-0.7195,-0.7757,-0.7751,-0.7747,0,-1.0227,-0.9994,-1.0009,-0.985,-0.9595,-0.963,-0.9377,-0.934,-0.9262,-0.91,-0.9181,-0.9028,-0.9052,-0.8899,-0.8907,-0.8664,-0.8624,-0.8616,-0.8621,-0.861,-0.8611,-0.8554,-0.8582,-0.8632,-0.8635,-0.8638,-0.8641,0,-1.07,-1.043,-1.0173,-1.0112,-1.0004,-0.9883,-0.9832,-0.9743,-0.9644,-0.9516,-0.9454,-0.9301,-0.9217,-0.9099,-0.9111,-0.9245,-0.8811,-0.8997,-0.8803,-0.8803,-0.8706,-0.8712,-0.8132,-0.8645,-0.8646,-0.8647,-0.8648,0,-1.1067,-1.0937,-1.0561,-1.0477,-1.0404,-1.0231,-1.0086,-0.9938,-0.9836,-0.9831,-0.9729,-0.9781,-0.9563,-0.975,-0.9452,-0.9624,-0.9539,-0.9509,-0.9495,-0.9476,-0.9685,-0.9363,-0.8808,-0.8752,-0.9462,-0.9468,-0.9474,0,-1.1613,-1.123,-1.1257,-1.0896,-1.0721,-1.0826,-1.0635,-1.0541,-1.0517,-1.0365,-1.0339,-1.0161,-1.0299,-1.0243,-1.0096,-1.006,-0.9836,-1.009,-0.9873,-0.9865,-0.9903,-0.9392,-0.931,-0.893,-0.956,-0.9551,-0.9545,0,-1.2035,-1.1903,-1.1835,-1.1769,-1.1647,-1.1496,-1.1275,-1.1108,-1.1007,-1.0886,-1.0705,-1.0451,-1.0549,-1.0452,-1.0475,-1.0321,-0.9989,-1.0443,-1.0441,-1.0366,-0.9601,-0.9527,-0.9463,-1.0039,-1.0029,-1.0021,-0.9613,0,-1.26,-1.2404,-1.2222,-1.2061,-1.1944,-1.1714,-1.1713,-1.1592,-1.163,-1.1608,-1.1335,-1.1249,-1.1073,-1.0996,-1.1026,-1.0671,-1.0731,-1.0832,-1.1012,-1.0675,-1.0541,-1.0486,-1.1214,-1.1219,-1.1223,-1.1227,0,0,-1.3124,-1.2843,-1.2874,-1.2659,-1.2563,-1.2672,-1.2427,-1.2345,-1.2172,-1.2105,-1.2206,-1.1835,-1.1758,-1.1427,-1.1322,-1.1246,-1.1185,-1.1299,-1.0834,-1.0791,-1.075,-1.0607,-1.055,-1.1235,-1.1237,-1.1238,-1.1239,0,-1.333,-1.3253,-1.3009,-1.2927,-1.2805,-1.2792,-1.2734,-1.263,-1.2603,-1.2332,-1.2423,-1.2258,-1.1953,-1.1865,-1.1779,-1.134,-1.1416,-1.1285,-1.1054,-1.0879,-1.0829,-1.0786,-1.0635,-1.058,-1.125,-1.1249,-1.1249,0,-1.3749,-1.3674,-1.3555,-1.3336,-1.3255,-1.3066,-1.3258,-1.3046,-1.2907,-1.3028,-1.2757,-1.2707,-1.2584,-1.2267,-1.2124,-1.2211,-1.1628,-1.1806,-1.1778,-1.1762,-1.1592,-1.1533,-1.148,-1.2181,-1.2184,-1.2187,0,0,-1.3927,-1.3743,-1.3668,-1.3379,-1.3323,-1.3299,-1.3195,-1.322,-1.3108,-1.3062,-1.2998,-1.2885,-1.2711,-1.2594,-1.2428,-1.2079,-1.2058,-1.1922,-1.1878,-1.1842,-1.1806,-1.1627,-1.1568,-1.2199,-1.22,-1.22,0,0,-1.401,-1.3914,-1.397,-1.3635,-1.3528,-1.3431,-1.3256,-1.3322,-1.3172,-1.3197,-1.3225,-1.3195,-1.2898,-1.2842,-1.3011,-1.2493,-1.2671,-1.263,-1.2539,-1.2483,-1.244,-1.246,-1.319,0,0,0,0,0,-1.4219,-1.3928,-1.398,-1.3923,-1.3642,-1.3404,-1.3368,-1.3385,-1.3515,-1.3377,-1.3335,-1.342,-1.2941,-1.3091,-1.3032,-1.2844,-1.236,-1.2331,-1.2305,-1.2105,-1.2047,-1.1998,0,0,0,0,0,0,-1.4197,-1.4127,-1.3988,-1.3879,-1.3816,-1.3414,-1.3638,-1.3635,-1.3531,-1.3552,-1.3426,-1.3416,-1.3425,-1.3121,-1.3068,-1.2889,-1.3208,-1.2349,-1.2325,-1.2303,-1.2085,-1.2038,-1.1997,0,0,0,0,0,-1.4179,-1.4123,-1.3667,-1.3883,-1.3828,-1.3784,-1.3649,-1.3648,-1.3567,-1.3499,-1.3492,-1.359,-1.3419,-1.3376,-1.309,-1.2913,-1.3245,-1.3225,-1.2333,-1.2314,-1.2297,-1.2062,0,0,0,0,0,0,-1.4166,-1.412,-1.3657,-1.3641,-1.3994,-1.3807,-1.3778,-1.3659,-1.3522,-1.3512,-1.3666,-1.3684,-1.3411,-1.338,-1.3346,-1.292,-1.3275,-1.3254,-1.3242,-1.2319,-1.2304,-1.229,0,0,0,0,0,0,-1.415,-1.4105,-1.3649,-1.3787,-1.3787,-1.3827,-1.3802,-1.3559,-1.3519,-1.3697,-1.3708,-1.3676,-1.3461,-1.338,-1.3355,-1.2974,-1.3297,-1.3278,-1.3265,-1.3257,-1.2306,-1.2295,0,0,0,0,0,0,-1.4132,-1.4093,-1.3792,-1.3791,-1.3792,-1.3614,-1.3613,-1.3322,-1.3641,-1.3701,-1.367,-1.3683,-1.3459,-1.3434,-1.336,-1.299,-1.2978,-1.3297,-1.3284,-1.3274,-1.3268,0,0,0,0,0,0,0,-1.4117,-1.437,-1.3752,-1.3795,-1.3796,-1.3493,-1.3489,-1.3484,-1.3644,-1.3655,-1.3667,-1.3677,-1.3407,-1.3386,-1.3365,-1.3003,0,0,-1.3299,-1.3289,0,0,0,0,0,0,0,0,-1.4386,-1.4374,-1.3751,-1.3748,-1.3745,-1.3492,-1.3489,-1.3485,-1.3646,-1.3655,-1.3664,-1.3673,-1.3401,-1.3384,-1.3367,0,0,0,0,0,0,0,0,0,0,0,0,0,0,0,-1.3751,-1.3748,0,-1.3492,-1.3489,-1.3486,-1.3647,-1.3655,-1.3662,-1.367,-1.3396,-1.3383,-1.3368,0,0,0,0,0,0,0,0,0,0,0,0,0,0,0,0,0,0,0,0,0,0,0,0,0,0,0,0,0,0,0,0,0,0,0,0,0,0,0,0,0,0,0,0,0,0,0,0,0,0,0,0,0,0,0,0,0,0,0,0,0,0,0,0,0,0,0,0,0]}]]]